Regional Weather Roundup
Issued by NWS

Home | Current Version | Previous Version | Graphics & Text | Print | Product List | Glossary On
Versions: 1 2 3 4 5 6 7 8 9 10 11 12 13 14 15 16 17 18 19 20 21 22 23 24 25 26 27 28 29 30 31 32 33 34 35 36 37 38 39 40 41 42 43 44 45 46 47 48 49 50
000
ASUS45 KBOU 271607
RWRCO

WEATHER ROUNDUP FOR COLORADO
NATIONAL WEATHER SERVICE DENVER/BOULDER CO
1000 AM MDT SUN JUL 27 2014

NOTE: "FAIR" INDICATES FEW OR NO CLOUDS BELOW 12000 FEET WITH NO
SIGNIFICANT WEATHER AND/OR OBSTRUCTIONS TO VISIBILITY.

COZ001>005-013-030-031-271700-
...NORTHWEST COLORADO...

CITY           SKY/WX    TMP DP  RH WIND       PRES   REMARKS
CRAIG          PTSUNNY   62  53  72 N3        30.41R
HAYDEN         CLOUDY    64  46  52 E8        30.42S
MEEKER         CLOUDY    65  48  54 CALM      30.41R
MOUNT WERNER   NOT AVBL
STEAMBOAT SPGS CLOUDY    61  51  69 CALM      30.44S
WALDEN         SUNNY     59  45  58 CALM      30.52S
$$

COZ006>008-011-271700-
...WEST CENTRAL VALLEYS...

CITY           SKY/WX    TMP DP  RH WIND       PRES   REMARKS
GRAND JUNCTION MOSUNNY   81  48  31 E14       30.26S
MONTROSE       MOSUNNY   78  49  35 SE7       30.35S
EAGLE          PTSUNNY   61  54  77 CALM      30.48F
RIFLE          PTSUNNY   72  51  47 VRB5      30.34F
DELTA          MOSUNNY   80  49  34 SE5       30.31S
NUCLA          MOSUNNY   81  45  28 NE3       30.37F
$$

COZ017>023-064>068-271700-
...SOUTHWEST COLORADO...

CITY           SKY/WX    TMP DP  RH WIND       PRES   REMARKS
DURANGO        MOSUNNY   76  46  34 VRB5      30.40F
CORTEZ         SUNNY     81  49  32 E3        30.35F
PAGOSA SPRINGS MOSUNNY   73  44  35 CALM      30.50S
TELLURIDE      MOSUNNY   70  45  40 CALM      30.57F
WOLF CREEK PAS NOT AVBL
$$

COZ009-010-012-014-032>034-037-058>063-271700-
...CENTRAL COLORADO...

CITY           SKY/WX    TMP DP  RH WIND       PRES   REMARKS
ASPEN          SUNNY     68  42  38 N3        30.49S
BUENA VISTA    NOT AVBL
COPPER MTN     CLOUDY    59  37  44 W6        30.82R
BERTHOUD PASS  CLOUDY    50  36  57 E7        30.87S
COTTONWOOD PAS MOSUNNY   68  43  40 SE5       30.65S
GUNNISON       PTSUNNY   61  48  63 CALM      30.54S
KREMMLING      PTSUNNY   61  45  55 CALM      30.51F
LEADVILLE      CLOUDY    58  43  57 CALM      30.64S
MONARCH PASS   PTSUNNY   55  37  50 SW5       30.91R
SALIDA         MOSUNNY  N/A N/A N/A CALM      30.57F
SUNLIGHT       MOSUNNY   63  41  45 CALM      30.73R
WILKERSON PASS NOT AVBL
$$

COZ069>075-271700-
...SAN LUIS VALLEY/SANGRE DE CRISTO MOUNTAINS...

CITY           SKY/WX    TMP DP  RH WIND       PRES   REMARKS
ALAMOSA        MOSUNNY   70  50  49 N8        30.47S
LA VETA PASS   MOSUNNY   63  46  55 E10       30.69R
SAGUACHE       PTSUNNY   68  46  45 NW9       30.50F
$$

COZ035-036-038>040-271700-
...NORTHERN COLORADO FRONT RANGE...

CITY           SKY/WX    TMP DP  RH WIND       PRES   REMARKS
DENVER INTL AP MOSUNNY   71  58  63 W6        30.37S
DMNS CITY PARK   N/A     68  60  73 NW9       30.38S
AURORA         PTSUNNY   68  59  73 W12       30.40S
FRONT RANGE AP MOSUNNY   70  59  68 CALM      30.39R
ERIE MUNI ARPT CLOUDY    67  62  85 N9        30.38R
BOULDER MUN AP MOSUNNY   70  61  73 N13       30.38S
CENTENNIAL     PTSUNNY   67  58  72 NW9       30.40S
BROOMFIELD     PTSUNNY   68  61  77 N9        30.41R
FORT COLLINS   PTSUNNY   68  63  83 N6        30.40R
LONGMONT       PTSUNNY   72  64  76 NE10      30.39S
$$

COZ041-046-047-076>085-087-088-271700-
...PIKES PEAK/PALMER DIVIDE AND SOUTHERN FOOTHILLS...

CITY           SKY/WX    TMP DP  RH WIND       PRES   REMARKS
COLO. SPRINGS  MOSUNNY   75  53  46 SE10      30.43R
A. F. ACADEMY  SUNNY     71  53  53 VRB5      30.44R
ELLICOTT       SUNNY     75  55  49 E7        30.41R
FALCON         SUNNY     72  52  50 E6        30.48R
FORT CARSON    SUNNY     74  55  51 SE6       30.41R
LIMON            N/A     78  52  40 SE14      30.37R
MONUMENT HILL  SUNNY     64  54  68 NW3       30.48R
TRINIDAD       MOSUNNY   77  55  46 VRB3      30.37R
$$

COZ042>045-048>051-090-091-271700-
...NORTHEAST COLORADO...

CITY           SKY/WX    TMP DP  RH WIND       PRES   REMARKS
GREELEY ARPT   CLOUDY    73  57  56 E13       30.37R
AKRON          SUNNY     73  55  53 E15       30.36R
BURLINGTON     SUNNY     75  58  55 E15       30.33R
WRAY             N/A     79  47  32 NE10G17   30.32R
STERLING       SUNNY     79  59  50 E9        30.33S
HOLYOKE        CLOUDY    79  50  36 E13       30.33R
FORT MORGAN    SUNNY     74  59  59 E16G23    30.36R
$$

COZ086-089-092>099-271700-
...SOUTHEAST COLORADO...

CITY           SKY/WX    TMP DP  RH WIND       PRES   REMARKS
PUEBLO         SUNNY     75  60  59 SE12      30.33R
LA JUNTA       MOSUNNY   78  63  59 E12       30.30R
LAMAR          PTSUNNY   75  66  73 E10       30.27R
SPRINGFIELD      N/A     78  65  63 E13       30.29R
$$



USA.gov is the U.S. government's official web portal to all federal, state and local government web resources and services.